Simultaneous Nadir Overpasses (SNOs) Predictions

Prediction of SNOs between AQUA and METOP-B Satellite Orbit:

Table of predicted SNOs for the next 14.0 days since TLE Epoch: 11/19/2022
Index Date (AQUA) Time (AQUA) Lat,Lon (AQUA) SZA (AQUA ) Date (METOP-B) Time (METOP-B) Lat,Lon (METOP-B) SZA (METOP-B ) Distance(km) Time Diff (sec)
1 11/20/2022 19:51:29 74.05,-122.69 93.78 11/20/2022 19:50:16 74.00,-122.92 93.74 9.03 73
2 11/20/2022 20:40:56 -74.16, 44.70 86.10 11/20/2022 20:40:55 -74.14, 44.75 86.12 3.27 1
3 11/20/2022 21:30:24 74.22,-147.81 93.98 11/20/2022 21:31:33 74.22,-147.70 93.97 3.45 69
4 11/23/2022 14:35:13 -73.89, 136.75 85.79 11/23/2022 14:34:02 -73.80, 135.69 85.86 34.14 71
5 11/23/2022 15:24:44 74.11, -56.12 94.45 11/23/2022 15:24:35 74.13, -56.17 94.48 2.93 9
6 11/23/2022 16:14:11 -74.22, 111.28 85.44 11/23/2022 16:15:15 -74.22, 111.39 85.43 3.41 64
7 11/26/2022 09:18:55 73.56, 36.54 94.43 11/26/2022 09:17:48 73.49, 34.05 94.39 78.85 67
8 11/26/2022 10:08:31 -74.13,-157.09 84.98 11/26/2022 10:08:17 -74.13,-157.10 84.98 0.23 14
9 11/26/2022 10:57:59 74.20, 10.38 95.10 11/26/2022 10:58:55 74.21, 10.45 95.11 2.36 56
10 11/29/2022 04:52:17 74.10, 102.05 95.49 11/29/2022 04:51:56 74.11, 101.95 95.50 3.47 21
11 11/29/2022 05:41:44 -74.20, -90.53 84.41 11/29/2022 05:42:36 -74.20, -90.49 84.40 1.28 52
12 12/01/2022 23:36:03 -74.12, 1.09 84.05 12/01/2022 23:35:37 -74.15, 1.12 84.02 3.31 26
13 12/02/2022 00:25:31 74.20, 168.53 96.05 12/02/2022 00:26:16 74.18, 168.54 96.02 2.57 45



Historial Predications of SNOs between AQUA and METOP-B
